{"data":{"norad_id":62580,"intl_designator":"2025-007F","name":"CENTISPACE-1 S11","alt_names":[],"object_type":"PAYLOAD","status":"ACTIVE","operator":null,"country":"PRC","launch_date":"2025-01-13","launch_site_code":"YSLA","launch_vehicle":null,"mission":null,"orbit_class":"UNKNOWN","rcs_meters":null,"size_class":null,"mass_kg":null,"dimensions":null,"purposes":[],"wikipedia_slug":null,"has_3d_model":false,"image_url":null,"decayed_at":null,"tle_current":{"epoch":"2026-05-25T02:49:15.951936Z","epoch_age_seconds":60961,"freshness":"FRESH","line1":"1 62580U 25007F   26145.11754574 -.00000124  00000+0  15315-4 0  9993","line2":"2 62580  54.9790  11.7890 0012687  56.8528 303.3643 13.80605751 71546","mean_motion":13.80605751,"eccentricity":0.0012687,"inclination_deg":54.979,"raan_deg":11.789,"arg_perigee_deg":56.8528,"mean_anomaly_deg":303.3643,"bstar":1.5315e-5,"rev_number":7154,"period_min":104.30204270531,"perigee_km":952.42689199042,"apogee_km":971.0510933342,"semimajor_km":7339.8759926623,"source":"CELESTRAK","updated_at":"2026-05-25T13:38:03.091019Z"}}}